TimeCDT,TemperatureF,Dew PointF,Humidity,Sea Level PressureIn,VisibilityMPH,Wind Direction,Wind SpeedMPH,Gust SpeedMPH,PrecipitationIn,Events,Conditions,WindDirDegrees,DateUTC
12:15 AM,34.2,27.0,75,30.18,10.0,WNW,5.8,-,N/A,,Overcast,300,2013-10-24 05:15:00
12:35 AM,35.1,27.5,74,30.18,10.0,WNW,8.1,-,N/A,,Mostly Cloudy,300,2013-10-24 05:35:00
12:55 AM,35.2,28.0,75,30.19,10.0,WNW,6.9,-,N/A,,Mostly Cloudy,300,2013-10-24 05:55:00
1:15 AM,35.4,28.8,77,30.19,10.0,WNW,5.8,-,N/A,,Overcast,300,2013-10-24 06:15:00
1:35 AM,36.1,29.1,76,30.20,10.0,NW,6.9,-,N/A,,Overcast,310,2013-10-24 06:35:00
1:55 AM,36.1,29.3,76,30.20,10.0,NW,5.8,-,N/A,,Mostly Cloudy,310,2013-10-24 06:55:00
2:15 AM,35.1,29.3,80,30.20,10.0,NW,5.8,-,N/A,,Scattered Clouds,310,2013-10-24 07:15:00
2:35 AM,34.7,29.3,81,30.21,10.0,NW,4.6,-,N/A,,Clear,310,2013-10-24 07:35:00
2:55 AM,34.0,29.5,84,30.22,10.0,NW,4.6,-,N/A,,Clear,320,2013-10-24 07:55:00
3:15 AM,33.8,29.3,84,30.23,10.0,NW,4.6,-,N/A,,Clear,310,2013-10-24 08:15:00
3:35 AM,34.0,29.3,83,30.23,10.0,NW,5.8,-,N/A,,Clear,310,2013-10-24 08:35:00
3:55 AM,34.7,30.0,83,30.23,10.0,NW,6.9,-,N/A,,Mostly Cloudy,310,2013-10-24 08:55:00
4:15 AM,34.7,29.8,82,30.23,10.0,NW,8.1,-,N/A,,Mostly Cloudy,310,2013-10-24 09:15:00
4:35 AM,35.6,30.2,81,30.24,10.0,NW,8.1,-,N/A,,Overcast,310,2013-10-24 09:35:00
4:55 AM,35.8,30.2,80,30.24,10.0,NW,8.1,-,N/A,,Overcast,320,2013-10-24 09:55:00
5:15 AM,34.9,29.8,82,30.25,10.0,NW,6.9,-,N/A,,Mostly Cloudy,310,2013-10-24 10:15:00
5:35 AM,34.2,29.5,83,30.26,10.0,WNW,6.9,-,N/A,,Scattered Clouds,300,2013-10-24 10:35:00
5:55 AM,33.1,29.3,86,30.26,10.0,WNW,5.8,-,N/A,,Clear,290,2013-10-24 10:55:00
6:15 AM,32.5,29.3,88,30.27,10.0,NW,5.8,-,N/A,,Clear,310,2013-10-24 11:15:00
6:35 AM,32.2,29.1,88,30.27,10.0,WNW,4.6,-,N/A,,Clear,300,2013-10-24 11:35:00
6:55 AM,32.2,29.3,89,30.28,10.0,WNW,3.5,-,N/A,,Clear,300,2013-10-24 11:55:00
7:15 AM,32.9,29.7,88,30.28,10.0,NW,6.9,-,N/A,,Mostly Cloudy,310,2013-10-24 12:15:00
7:35 AM,33.3,29.8,87,30.28,10.0,NW,5.8,-,N/A,,Overcast,310,2013-10-24 12:35:00
7:55 AM,33.8,29.8,85,30.29,10.0,NW,8.1,-,N/A,,Overcast,320,2013-10-24 12:55:00
8:15 AM,33.8,30.0,86,30.30,10.0,NW,5.8,-,N/A,,Mostly Cloudy,310,2013-10-24 13:15:00
8:35 AM,34.0,29.8,85,30.30,10.0,NW,8.1,-,N/A,,Scattered Clouds,310,2013-10-24 13:35:00
8:55 AM,34.9,30.0,82,30.31,10.0,NW,8.1,-,N/A,,Clear,320,2013-10-24 13:55:00
9:15 AM,36.1,30.2,79,30.31,10.0,NW,6.9,-,N/A,,Clear,320,2013-10-24 14:15:00
9:35 AM,37.8,30.9,76,30.32,10.0,NW,11.5,-,N/A,,Clear,320,2013-10-24 14:35:00
9:55 AM,39.2,31.1,73,30.32,10.0,NW,9.2,-,N/A,,Clear,320,2013-10-24 14:55:00
10:15 AM,40.1,31.6,72,30.33,10.0,NNW,5.8,-,N/A,,Mostly Cloudy,340,2013-10-24 15:15:00
10:35 AM,41.0,31.1,68,30.33,10.0,NNW,9.2,-,N/A,,Scattered Clouds,330,2013-10-24 15:35:00
10:55 AM,41.4,31.6,68,30.34,10.0,NNW,6.9,-,N/A,,Scattered Clouds,330,2013-10-24 15:55:00
11:15 AM,43.3,32.5,66,30.34,10.0,NW,6.9,-,N/A,,Scattered Clouds,310,2013-10-24 16:15:00
11:35 AM,44.8,30.0,56,30.34,10.0,NW,10.4,-,N/A,,Clear,320,2013-10-24 16:35:00
11:55 AM,45.7,27.9,50,30.34,10.0,NW,15.0,-,N/A,,Clear,320,2013-10-24 16:55:00
12:15 PM,46.8,28.6,49,30.34,10.0,NW,11.5,24.2,N/A,,Scattered Clouds,320,2013-10-24 17:15:00
12:35 PM,46.2,28.6,50,30.33,10.0,NW,9.2,24.2,N/A,,Mostly Cloudy,320,2013-10-24 17:35:00
12:55 PM,47.5,27.1,45,30.33,10.0,NW,16.1,23.0,N/A,,Mostly Cloudy,320,2013-10-24 17:55:00
1:15 PM,47.5,26.8,45,30.33,10.0,NNW,15.0,19.6,N/A,,Mostly Cloudy,330,2013-10-24 18:15:00
1:35 PM,47.8,27.3,45,30.33,10.0,NNW,13.8,23.0,N/A,,Mostly Cloudy,330,2013-10-24 18:35:00
1:55 PM,47.5,26.1,43,30.33,10.0,NW,13.8,21.9,N/A,,Overcast,320,2013-10-24 18:55:00
2:15 PM,48.6,25.9,41,30.32,10.0,NNW,11.5,17.3,N/A,,Overcast,330,2013-10-24 19:15:00
2:35 PM,48.6,25.7,41,30.32,10.0,WNW,12.7,19.6,N/A,,Overcast,300,2013-10-24 19:35:00
2:55 PM,48.0,25.5,41,30.31,10.0,NW,8.1,-,N/A,,Overcast,320,2013-10-24 19:55:00
3:15 PM,49.5,24.1,37,30.31,10.0,WNW,11.5,19.6,N/A,,Mostly Cloudy,290,2013-10-24 20:15:00
3:35 PM,48.4,25.0,40,30.31,10.0,NNW,6.9,-,N/A,,Mostly Cloudy,330,2013-10-24 20:35:00
3:55 PM,48.9,24.8,39,30.31,10.0,NNW,10.4,16.1,N/A,,Mostly Cloudy,330,2013-10-24 20:55:00
4:15 PM,50.5,23.7,35,30.31,10.0,NW,10.4,-,N/A,,Mostly Cloudy,320,2013-10-24 21:15:00
4:35 PM,49.3,25.0,39,30.31,10.0,WNW,11.5,17.3,N/A,,Mostly Cloudy,290,2013-10-24 21:35:00
4:55 PM,48.0,25.5,41,30.31,10.0,NW,8.1,-,N/A,,Scattered Clouds,310,2013-10-24 21:55:00
5:15 PM,48.7,24.6,39,30.31,10.0,WNW,10.4,-,N/A,,Scattered Clouds,290,2013-10-24 22:15:00
5:35 PM,48.2,23.7,38,30.32,10.0,NW,9.2,-,N/A,,Scattered Clouds,310,2013-10-24 22:35:00
5:55 PM,47.5,24.4,41,30.32,10.0,WNW,5.8,-,N/A,,Clear,300,2013-10-24 22:55:00
6:15 PM,45.5,25.5,46,30.32,10.0,WNW,4.6,-,N/A,,Clear,290,2013-10-24 23:15:00
6:35 PM,43.7,25.9,50,30.33,10.0,WNW,3.5,-,N/A,,Clear,300,2013-10-24 23:35:00
6:55 PM,42.6,25.5,51,30.33,10.0,West,3.5,-,N/A,,Clear,280,2013-10-24 23:55:00
7:15 PM,40.3,26.2,57,30.33,10.0,Calm,Calm,-,N/A,,Scattered Clouds,0,2013-10-25 00:15:00
7:35 PM,39.7,27.1,61,30.33,10.0,Calm,Calm,-,N/A,,Scattered Clouds,0,2013-10-25 00:35:00
7:55 PM,38.1,27.3,65,30.34,10.0,Calm,Calm,-,N/A,,Clear,0,2013-10-25 00:55:00
8:15 PM,37.6,27.1,66,30.34,10.0,Calm,Calm,-,N/A,,Clear,0,2013-10-25 01:15:00
8:35 PM,36.3,27.3,70,30.34,10.0,Calm,Calm,-,N/A,,Clear,0,2013-10-25 01:35:00
8:55 PM,34.5,27.5,76,30.34,10.0,Calm,Calm,-,N/A,,Clear,0,2013-10-25 01:55:00
9:15 PM,33.8,27.9,79,30.34,10.0,Calm,Calm,-,N/A,,Clear,0,2013-10-25 02:15:00
9:35 PM,32.5,27.7,82,30.35,10.0,Calm,Calm,-,N/A,,Clear,0,2013-10-25 02:35:00
9:55 PM,32.2,27.1,82,30.35,10.0,Calm,Calm,-,N/A,,Clear,0,2013-10-25 02:55:00
10:15 PM,30.9,27.0,85,30.35,10.0,Calm,Calm,-,N/A,,Clear,0,2013-10-25 03:15:00
10:35 PM,31.8,27.9,85,30.36,10.0,Calm,Calm,-,N/A,,Clear,0,2013-10-25 03:35:00
10:55 PM,30.2,27.0,88,30.36,10.0,Calm,Calm,-,N/A,,Clear,0,2013-10-25 03:55:00
11:15 PM,29.8,27.3,90,30.36,10.0,Calm,Calm,-,N/A,,Clear,0,2013-10-25 04:15:00
11:35 PM,30.0,27.1,89,30.36,10.0,Calm,Calm,-,N/A,,Clear,0,2013-10-25 04:35:00
11:55 PM,29.3,26.4,89,30.36,10.0,Calm,Calm,-,N/A,,Clear,0,2013-10-25 04:55:00